• In Netherlands
  • List of Countries
  • For 7 days
  • Water Temperature
  • Satellite Maps
  • Weather Map
  • Weather Widgets
  • user-avatar
    Login

    Hourly Weather Jaú

    Today, 21 July, Friday

    Time Temperature Precipitation Wind Pressure Humidity
    00:00 +36°C° 0 mm 1 mps 746 mmHg 35%
    01:00 +37°C° 0 mm 2 mps 746 mmHg 36%
    02:00 +37°C° 0 mm 2 mps 746 mmHg 36%
    03:00 +37°C° 0 mm 2 mps 746 mmHg 36%
    04:00 +37°C° 0 mm 2 mps 747 mmHg 36%
    05:00 +36°C° 0 mm 1 mps 747 mmHg 35%
    06:00 +36°C° 0 mm 1 mps 747 mmHg 35%
    07:00 +39°C° 0 mm 1 mps 747 mmHg 31%
    08:00 +41°C° 0 mm 1 mps 748 mmHg 27%
    09:00 +42°C° 0 mm 2 mps 748 mmHg 24%
    10:00 +43°C° 0 mm 1 mps 748 mmHg 21%
    11:00 +44°C° 0 mm 1 mps 747 mmHg 19%
    12:00 +45°C° 0 mm 1 mps 747 mmHg 17%
    13:00 +47°C° 0 mm 2 mps 747 mmHg 16%
    14:00 +47°C° 0 mm 2 mps 747 mmHg 15%
    15:00 +48°C° 0 mm 2 mps 746 mmHg 14%
    16:00 +47°C° 0 mm 2 mps 746 mmHg 14%
    17:00 +46°C° 0 mm 3 mps 746 mmHg 15%
    18:00 +45°C° 0 mm 3 mps 746 mmHg 16%
    19:00 +44°C° 0 mm 3 mps 747 mmHg 20%
    20:00 +43°C° 0 mm 3 mps 747 mmHg 24%
    21:00 +40°C° 0 mm 3 mps 747 mmHg 28%
    22:00 +39°C° 0 mm 2 mps 747 mmHg 30%
    23:00 +39°C° 0 mm 2 mps 747 mmHg 32%

    Tomorrow, 22 July, Saturday

    Time Temperature Precipitation Wind Pressure Humidity
    00:00 +37°C° 0 mm 1 mps 747 mmHg 35%
    01:00 +36°C° 0 mm 1 mps 747 mmHg 35%
    02:00 +36°C° 0 mm 1 mps 747 mmHg 36%
    03:00 +35°C° 0 mm 1 mps 746 mmHg 37%
    04:00 +36°C° 0 mm 1 mps 747 mmHg 36%
    05:00 +36°C° 0 mm 1 mps 747 mmHg 34%
    06:00 +37°C° 0 mm 1 mps 747 mmHg 32%
    07:00 +39°C° 0 mm 2 mps 747 mmHg 28%
    08:00 +41°C° 0 mm 2 mps 748 mmHg 24%
    09:00 +43°C° 0 mm 2 mps 748 mmHg 20%
    10:00 +45°C° 0 mm 2 mps 748 mmHg 19%
    11:00 +46°C° 0 mm 2 mps 747 mmHg 18%
    12:00 +47°C° 0 mm 2 mps 747 mmHg 16%
    13:00 +47°C° 0 mm 2 mps 747 mmHg 16%
    14:00 +47°C° 0 mm 3 mps 746 mmHg 16%
    15:00 +48°C° 0 mm 3 mps 746 mmHg 15%
    16:00 +47°C° 0 mm 3 mps 746 mmHg 17%
    17:00 +46°C° 0 mm 2 mps 746 mmHg 18%
    18:00 +45°C° 0 mm 2 mps 746 mmHg 19%
    19:00 +42°C° 0 mm 2 mps 746 mmHg 21%
    20:00 +41°C° 0 mm 1 mps 746 mmHg 23%
    21:00 +40°C° 0 mm 1 mps 746 mmHg 25%
    22:00 +39°C° 0 mm 1 mps 746 mmHg 24%
    23:00 +39°C° 0 mm 1 mps 746 mmHg 24%

    Day after tomorrow, 23 July, Sunday

    Time Temperature Precipitation Wind Pressure Humidity
    00:00 +39°C° 0 mm 2 mps 746 mmHg 24%
    01:00 +38°C° 0 mm 2 mps 746 mmHg 25%
    02:00 +38°C° 0 mm 2 mps 746 mmHg 26%
    03:00 +37°C° 0 mm 2 mps 745 mmHg 28%
    04:00 +37°C° 0 mm 2 mps 746 mmHg 28%
    05:00 +37°C° 0 mm 2 mps 746 mmHg 29%
    06:00 +38°C° 0 mm 2 mps 746 mmHg 29%
    07:00 +39°C° 0 mm 2 mps 746 mmHg 26%
    08:00 +41°C° 0 mm 2 mps 746 mmHg 22%
    09:00 +43°C° 0 mm 2 mps 747 mmHg 19%
    10:00 +45°C° 0 mm 2 mps 746 mmHg 17%
    11:00 +46°C° 0 mm 2 mps 746 mmHg 15%
    12:00 +47°C° 0 mm 2 mps 746 mmHg 14%
    13:00 +47°C° 0 mm 2 mps 746 mmHg 13%
    14:00 +48°C° 0 mm 3 mps 745 mmHg 13%
    15:00 +49°C° 0 mm 4 mps 745 mmHg 13%
    16:00 +48°C° 0 mm 4 mps 745 mmHg 16%
    17:00 +47°C° 0 mm 4 mps 745 mmHg 18%
    18:00 +46°C° 0 mm 5 mps 745 mmHg 21%
    19:00 +43°C° 0 mm 5 mps 745 mmHg 25%
    20:00 +42°C° 0 mm 4 mps 746 mmHg 29%
    21:00 +41°C° 0 mm 4 mps 746 mmHg 33%
    22:00 +41°C° 0 mm 4 mps 746 mmHg 34%
    23:00 +40°C° 0 mm 4 mps 746 mmHg 34%

    24 July, Monday

    Time Temperature Precipitation Wind Pressure Humidity
    00:00 +39°C° 0 mm 3 mps 745 mmHg 35%
    01:00 +38°C° 0 mm 3 mps 745 mmHg 34%
    02:00 +38°C° 0 mm 3 mps 745 mmHg 34%
    03:00 +37°C° 0 mm 2 mps 745 mmHg 33%
    04:00 +38°C° 0 mm 3 mps 745 mmHg 33%
    05:00 +38°C° 0 mm 3 mps 745 mmHg 33%
    06:00 +38°C° 0 mm 3 mps 746 mmHg 33%
    07:00 +40°C° 0 mm 3 mps 746 mmHg 29%
    08:00 +42°C° 0 mm 3 mps 746 mmHg 26%
    09:00 +44°C° 0 mm 4 mps 747 mmHg 22%
    10:00 +45°C° 0 mm 3 mps 746 mmHg 21%
    11:00 +46°C° 0 mm 3 mps 746 mmHg 19%
    12:00 +47°C° 0 mm 3 mps 746 mmHg 18%
    13:00 +47°C° 0 mm 3 mps 745 mmHg 17%
    14:00 +48°C° 0 mm 3 mps 745 mmHg 16%
    15:00 +49°C° 0 mm 4 mps 745 mmHg 15%
    16:00 +47°C° 0 mm 4 mps 745 mmHg 20%
    17:00 +46°C° 0 mm 5 mps 745 mmHg 24%
    18:00 +45°C° 0 mm 5 mps 745 mmHg 29%
    19:00 +43°C° 0 mm 5 mps 745 mmHg 32%
    20:00 +42°C° 0 mm 5 mps 745 mmHg 35%
    21:00 +41°C° 0 mm 5 mps 746 mmHg 38%
    22:00 +41°C° 0 mm 5 mps 745 mmHg 37%
    23:00 +40°C° 0 mm 4 mps 745 mmHg 37%

    25 July, Tuesday

    Time Temperature Precipitation Wind Pressure Humidity
    00:00 +40°C° 0 mm 4 mps 745 mmHg 37%
    01:00 +40°C° 0 mm 4 mps 745 mmHg 36%
    02:00 +38°C° 0 mm 3 mps 745 mmHg 35%
    03:00 +38°C° 0 mm 3 mps 744 mmHg 35%
    04:00 +38°C° 0 mm 3 mps 745 mmHg 36%
    05:00 +38°C° 0 mm 3 mps 745 mmHg 36%
    06:00 +38°C° 0 mm 3 mps 746 mmHg 37%
    07:00 +39°C° 0 mm 3 mps 746 mmHg 34%
    08:00 +42°C° 0 mm 3 mps 746 mmHg 30%
    09:00 +42°C° 0 mm 2 mps 746 mmHg 27%
    10:00 +43°C° 0 mm 2 mps 746 mmHg 25%
    11:00 +45°C° 0 mm 2 mps 746 mmHg 23%
    12:00 +46°C° 0 mm 2 mps 745 mmHg 20%
    13:00 +47°C° 0 mm 3 mps 745 mmHg 19%
    14:00 +47°C° 0 mm 3 mps 745 mmHg 18%
    15:00 +48°C° 0 mm 3 mps 744 mmHg 16%
    16:00 +47°C° 0 mm 3 mps 744 mmHg 17%
    17:00 +47°C° 0 mm 4 mps 745 mmHg 19%
    18:00 +45°C° 0 mm 4 mps 745 mmHg 20%
    19:00 +44°C° 0 mm 4 mps 745 mmHg 23%
    20:00 +43°C° 0 mm 4 mps 745 mmHg 27%
    21:00 +42°C° 0 mm 4 mps 746 mmHg 30%
    22:00 +42°C° 0 mm 4 mps 745 mmHg 31%
    23:00 +40°C° 0 mm 3 mps 745 mmHg 31%

    26 July, Wednesday

    Time Temperature Precipitation Wind Pressure Humidity
    00:00 +40°C° 0 mm 3 mps 745 mmHg 32%
    01:00 +39°C° 0 mm 3 mps 745 mmHg 33%
    02:00 +39°C° 0 mm 3 mps 745 mmHg 34%
    03:00 +38°C° 0 mm 3 mps 745 mmHg 36%
    04:00 +38°C° 0 mm 3 mps 745 mmHg 36%
    05:00 +38°C° 0 mm 3 mps 746 mmHg 37%
    06:00 +38°C° 0 mm 2 mps 746 mmHg 37%
    07:00 +39°C° 0 mm 2 mps 746 mmHg 33%
    08:00 +41°C° 0 mm 2 mps 747 mmHg 30%
    09:00 +42°C° 0 mm 2 mps 747 mmHg 26%
    10:00 +43°C° 0 mm 2 mps 747 mmHg 24%
    11:00 +46°C° 0 mm 2 mps 746 mmHg 21%
    12:00 +47°C° 0 mm 2 mps 746 mmHg 19%
    13:00 +47°C° 0 mm 2 mps 746 mmHg 18%
    14:00 +48°C° 0 mm 3 mps 746 mmHg 17%
    15:00 +49°C° 0 mm 4 mps 745 mmHg 15%
    16:00 +48°C° 0 mm 4 mps 745 mmHg 17%
    17:00 +47°C° 0 mm 4 mps 745 mmHg 20%
    18:00 +45°C° 0 mm 4 mps 745 mmHg 22%
    19:00 +44°C° 0 mm 4 mps 746 mmHg 25%
    20:00 +43°C° 0 mm 4 mps 746 mmHg 29%
    21:00 +42°C° 0 mm 4 mps 746 mmHg 33%
    22:00 +42°C° 0 mm 4 mps 746 mmHg 34%
    23:00 +40°C° 0 mm 3 mps 746 mmHg 35%
    Show more